Orbital Elements at Epoch 2459200.5 (2020-Dec-17.0) TDB
Reference: JPL 21 (heliocentric ecliptic J2000)
Element | Value | Uncertainty (1-sigma) | Units |
e | .1352508232518335 | 4.0687e-08 | |
a | 2.32875650148141 | 9.3662e-09 | au |
q | 2.01379026750299 | 9.5493e-08 | au |
i | 7.650253953777417 | 4.2749e-06 | deg |
node | 51.45147809596675 | 3.4024e-05 | deg |
peri | 328.1678942288958 | 3.7635e-05 | deg |
M | 343.0741078080319 | 1.611e-05 | deg |
tp | 2459261.528629466607 (2021-Feb-16.02862947) | 5.818e-05 | TDB |
period | 1298.029454447566 3.55 | 7.8309e-06 2.144e-08 | d yr |
n | .2773434753475714 | 1.6732e-09 | deg/d |
Q | 2.643722735459831 | 1.0633e-08 | au |
|
| | Orbit Determination Parameters
Additional Information
|